Weather History for KPQI - March, 2013

Change the Weather History Date:

Friday, March 1, 2013

  Actual Average Record
Temperature  
Mean Temperature 30 °F -  
Max Temperature 33 °F 29 °F 46 °F (1983)
Min Temperature 26 °F 7 °F -26 °F (1982)
Degree Days  
Heating Degree Days 36    
Moisture  
Dew Point 24 °F    
Average Humidity 80    
Maximum Humidity 93    
Minimum Humidity 69    
Precipitation  
Precipitation 0.06 in - - ()
Sea Level Pressure  
Sea Level Pressure 29.58 in    
Wind  
Wind Speed 12 mph (North)    
Max Wind Speed 17 mph    
Max Gust Speed 21 mph    
Visibility 8 miles    
Events      
Averages and records for this station are not official NWS values.
T = Trace of Precipitation, MM = Missing Value Source: NWS Daily Summary

Daily Weather History Graph

Daily Weather History Graph

Search for Another Location

Airport or City:

Trip Planner

Search our weather history database for the weather conditions in past years. The results will help you decide how hot, cold, wet, or windy it might be!

Date:

Astronomy

Mar. 01, 2013 Rise Set
Actual Time 6:11 AM EST 5:18 PM EST
Civil Twilight 5:40 AM EST 5:48 PM EST
Nautical Twilight 5:06 AM EST 6:23 PM EST
Astronomical Twilight 4:30 AM EST 6:58 PM EST
Moon 10:08 PM EST (3/1) 7:37 AM EST (3/1)
Length of Visible Light 12h 07m
Length of Day
11h 06m
Waning Gibbous, 83% of the Moon is Illuminated
Mar 1
Waning Gibbous
Mar 4
Last Quarter
Mar 11
New
Mar 19
First Quarter
Mar 27
Full

Hourly Weather History & Observations

Time (EST) Temp. Windchill Dew Point Humidity Pressure Visibility Wind Dir Wind Speed Gust Speed Precip Events Conditions
12:15 AM 28.4 °F 18.0 °F 24.8 °F 86% 29.59 in 7.0 mi NE 12.7 mph - N/A   Overcast
12:35 AM 28.4 °F 18.0 °F 24.8 °F 86% 29.60 in 5.0 mi NE 12.7 mph - N/A   Overcast
12:55 AM 28.4 °F 17.5 °F 23.0 °F 80% 29.59 in 5.0 mi NE 13.8 mph - N/A   Overcast
1:15 AM 28.4 °F 17.0 °F 23.0 °F 80% 29.59 in 5.0 mi NE 15.0 mph 19.6 mph N/A   Overcast
1:35 AM 28.4 °F 19.1 °F 23.0 °F 80% 29.59 in 10.0 mi NE 10.4 mph - N/A   Overcast
1:55 AM 28.4 °F 18.5 °F 21.2 °F 74% 29.58 in 10.0 mi NE 11.5 mph - N/A   Overcast
2:15 AM 28.4 °F 17.5 °F 21.2 °F 74% 29.58 in 10.0 mi NE 13.8 mph 18.4 mph N/A   Overcast
2:35 AM 28.4 °F 18.0 °F 21.2 °F 74% 29.58 in 10.0 mi NNE 12.7 mph 17.3 mph N/A   Overcast
2:55 AM 28.4 °F 17.5 °F 21.2 °F 74% 29.58 in 10.0 mi NNE 13.8 mph - N/A   Overcast
3:55 AM 28.4 °F 19.1 °F 21.2 °F 74% 29.59 in 10.0 mi NNE 10.4 mph - N/A   Overcast
4:15 AM 28.4 °F 19.1 °F 21.2 °F 74% 29.59 in 10.0 mi NNE 10.4 mph - N/A   Overcast
4:55 AM 26.6 °F 17.5 °F 23.0 °F 86% 29.60 in 1.2 mi NNE 9.2 mph - N/A   Overcast
5:15 AM 26.6 °F 17.5 °F 23.0 °F 86% 29.60 in 3.0 mi NNE 9.2 mph - N/A   Overcast
5:35 AM 26.6 °F 16.2 °F 23.0 °F 86% 29.60 in 4.0 mi NNE 11.5 mph - N/A   Mostly Cloudy
5:55 AM 26.6 °F 15.7 °F 23.0 °F 86% 29.60 in 1.0 mi North 12.7 mph - N/A   Overcast
6:15 AM 26.6 °F 15.7 °F 23.0 °F 86% 29.60 in 2.0 mi North 12.7 mph - N/A   Overcast
6:35 AM 26.6 °F 15.2 °F 23.0 °F 86% 29.60 in 8.0 mi North 13.8 mph - N/A   Mostly Cloudy
6:55 AM 26.6 °F 15.7 °F 23.0 °F 86% 29.61 in 8.0 mi North 12.7 mph - N/A   Overcast
7:15 AM 26.6 °F 15.2 °F 21.2 °F 80% 29.61 in 10.0 mi North 13.8 mph - N/A   Overcast
7:35 AM 26.6 °F 16.8 °F 23.0 °F 86% 29.62 in 2.5 mi North 10.4 mph - N/A   Overcast
7:55 AM 28.4 °F 18.0 °F 21.2 °F 74% 29.62 in 10.0 mi North 12.7 mph - N/A   Overcast
8:15 AM 28.4 °F 18.5 °F 21.2 °F 74% 29.62 in 10.0 mi North 11.5 mph 18.4 mph N/A   Overcast
8:35 AM 28.4 °F 18.5 °F 21.2 °F 74% 29.62 in 10.0 mi North 11.5 mph 19.6 mph N/A   Overcast
8:55 AM 28.4 °F 18.0 °F 21.2 °F 74% 29.62 in 10.0 mi North 12.7 mph 18.4 mph N/A   Overcast
9:15 AM 28.4 °F 17.0 °F 21.2 °F 74% 29.62 in 10.0 mi North 15.0 mph - N/A   Overcast
9:35 AM 28.4 °F 17.0 °F 21.2 °F 74% 29.62 in 10.0 mi North 15.0 mph - N/A   Overcast
9:55 AM 28.4 °F 18.0 °F 21.2 °F 74% 29.62 in 10.0 mi North 12.7 mph - N/A   Overcast
10:15 AM 28.4 °F 17.0 °F 21.2 °F 74% 29.61 in 10.0 mi NNE 15.0 mph - N/A   Overcast
10:35 AM 28.4 °F 18.0 °F 23.0 °F 80% 29.61 in 10.0 mi North 12.7 mph - 0.01 in   Overcast
11:15 AM 30.2 °F 18.5 °F 21.2 °F 69% 29.60 in 10.0 mi North 17.3 mph 20.7 mph N/A   Overcast
11:35 AM 30.2 °F 20.2 °F 23.0 °F 75% 29.59 in 10.0 mi NNE 12.7 mph 18.4 mph N/A   Overcast
11:55 AM 30.2 °F 18.5 °F 23.0 °F 75% 29.58 in 10.0 mi North 17.3 mph - N/A   Overcast
12:15 PM 30.2 °F 19.3 °F 24.8 °F 80% 29.58 in 10.0 mi NNE 15.0 mph - N/A   Overcast
12:35 PM 30.2 °F 19.8 °F 24.8 °F 80% 29.58 in 10.0 mi North 13.8 mph - N/A   Overcast
12:55 PM 30.2 °F 19.8 °F 24.8 °F 80% 29.58 in 10.0 mi North 13.8 mph - N/A   Overcast
1:15 PM 32.0 °F 23.6 °F 24.8 °F 75% 29.58 in 10.0 mi North 10.4 mph - 0.04 in   Overcast
1:35 PM 30.2 °F 19.3 °F 24.8 °F 80% 29.58 in 10.0 mi North 15.0 mph - 0.04 in   Overcast
1:55 PM 32.0 °F 21.6 °F 24.8 °F 75% 29.58 in 10.0 mi North 15.0 mph - 0.05 in   Overcast
2:15 PM 32.0 °F 23.0 °F 24.8 °F 75% 29.58 in 10.0 mi North 11.5 mph - N/A   Overcast
2:35 PM 32.0 °F 23.6 °F 24.8 °F 75% 29.57 in 8.0 mi North 10.4 mph - N/A   Overcast
2:55 PM 32.0 °F 23.6 °F 24.8 °F 75% 29.57 in 10.0 mi North 10.4 mph - N/A   Overcast
3:15 PM 32.0 °F 23.6 °F 24.8 °F 75% 29.57 in 10.0 mi North 10.4 mph - N/A   Overcast
3:35 PM 32.0 °F 23.6 °F 26.6 °F 80% 29.57 in 10.0 mi NNW 10.4 mph - N/A   Overcast
3:55 PM 33.8 °F 27.0 °F 26.6 °F 75% 29.56 in 8.0 mi NNW 8.1 mph - N/A   Overcast
4:15 PM 32.0 °F 24.8 °F 28.4 °F 87% 29.57 in 9.0 mi NNW 8.1 mph - N/A   Overcast
4:35 PM 32.0 °F 26.4 °F 28.4 °F 87% 29.57 in 5.0 mi NNW 5.8 mph - N/A   Overcast
4:55 PM 32.0 °F 28.7 °F 28.4 °F 87% 29.57 in 2.5 mi NNW 3.5 mph - N/A   Overcast
5:15 PM 32.0 °F 26.4 °F 28.4 °F 87% 29.57 in 2.5 mi North 5.8 mph - N/A   Overcast
5:55 PM 32.0 °F 26.4 °F 30.2 °F 93% 29.57 in 3.0 mi NNW 5.8 mph - N/A   Overcast
6:15 PM 33.8 °F 27.7 °F 30.2 °F 87% 29.57 in 3.0 mi NNW 6.9 mph - N/A   Overcast
6:35 PM 33.8 °F 25.8 °F 30.2 °F 87% 29.57 in 7.0 mi North 10.4 mph - N/A   Overcast
6:55 PM 33.8 °F 27.7 °F 30.2 °F 87% 29.56 in 9.0 mi NNW 6.9 mph - N/A   Overcast
7:15 PM 33.8 °F 25.3 °F 28.4 °F 81% 29.56 in 10.0 mi NNW 11.5 mph - N/A   Overcast
7:35 PM 33.8 °F 24.3 °F 28.4 °F 81% 29.56 in 9.0 mi NNW 13.8 mph - N/A   Overcast
7:55 PM 32.0 °F 21.2 °F 26.6 °F 80% 29.56 in 10.0 mi NNW 16.1 mph - N/A   Overcast
8:15 PM 32.0 °F 22.1 °F 26.6 °F 80% 29.55 in 10.0 mi NNW 13.8 mph - N/A   Mostly Cloudy
8:35 PM 30.2 °F 21.3 °F 26.6 °F 86% 29.55 in 10.0 mi NNW 10.4 mph - N/A   Overcast
8:55 PM 30.2 °F 21.3 °F 26.6 °F 86% 29.55 in 10.0 mi NNW 10.4 mph - N/A   Overcast
9:15 PM 30.2 °F 20.8 °F 26.6 °F 86% 29.55 in 10.0 mi NNW 11.5 mph - N/A   Overcast
9:35 PM 30.2 °F 21.9 °F 24.8 °F 80% 29.54 in 10.0 mi NNW 9.2 mph - N/A   Overcast
9:55 PM 30.2 °F 21.3 °F 24.8 °F 80% 29.54 in 10.0 mi NNW 10.4 mph - N/A   Overcast
10:15 PM 30.2 °F 20.2 °F 23.0 °F 75% 29.54 in 10.0 mi NNW 12.7 mph - N/A   Overcast
10:35 PM 30.2 °F 19.8 °F 24.8 °F 80% 29.54 in 10.0 mi NNW 13.8 mph - N/A   Overcast
10:55 PM 30.2 °F 20.2 °F 23.0 °F 75% 29.54 in 10.0 mi North 12.7 mph - N/A   Overcast
11:15 PM 28.4 °F 17.5 °F 24.8 °F 86% 29.53 in 10.0 mi NNW 13.8 mph - N/A   Overcast
11:35 PM 28.4 °F 17.5 °F 23.0 °F 80% 29.52 in 10.0 mi NNW 13.8 mph - N/A   Overcast
11:55 PM 28.4 °F 18.0 °F 24.8 °F 86% 29.52 in 9.0 mi NNW 12.7 mph - N/A   Overcast